Location: Unspecified
(0.0000°N, 0.0000°E)
Time: 16:40:06
(UTC+00:00)

Vanguard 1 - Pass Details

Date: 19 December 2018
Orbit: 654 x 3829 km, 34.2° (Epoch: 17 June)

Event Time Altitude Azimuth Distance (km) Brightness Sun altitude
Rises 20:27:55 0° 228° (SW) 7,922 15.7 -34.1°
Reaches altitude 10° 20:37:09 10° 211° (SSW) 6,583 14.8 -36.1°
Maximum altitude 20:49:02 18° 175° (S) 5,155 13.9 -38.7°
Drops below altitude 10° 20:58:06 10° 137° (SE) 4,930 13.5 -40.6°
Enters shadow 20:59:52 - 130° (SE) 5,028 13.5 -41.0°
